Year,Month,Day,Hour,Minute,Value (Times are PST for windgust in km/hr)
2018,01,22,00,00,4.80
2018,01,22,00,01,4.80
2018,01,22,00,02,1.60
2018,01,22,00,06,3.20
2018,01,22,00,07,3.20
2018,01,22,00,08,3.20
2018,01,22,00,09,3.20
2018,01,22,00,10,3.20
2018,01,22,00,11,3.20
2018,01,22,00,12,4.80
2018,01,22,00,13,4.80
2018,01,22,00,14,3.20
2018,01,22,00,15,3.20
2018,01,22,00,16,3.20
2018,01,22,00,17,1.60
2018,01,22,00,28,4.80
2018,01,22,00,29,3.20
2018,01,22,00,30,3.20
2018,01,22,00,31,1.60
2018,01,22,00,36,3.20
2018,01,22,00,37,1.60
2018,01,22,00,50,1.60
2018,01,22,00,54,4.80
2018,01,22,00,55,4.80
2018,01,22,00,56,4.80
2018,01,22,00,57,3.20
2018,01,22,00,58,6.40
2018,01,22,00,59,4.80
2018,01,22,01,00,4.80
2018,01,22,01,01,4.80
2018,01,22,01,02,6.40
2018,01,22,01,03,6.40
2018,01,22,01,04,4.80
2018,01,22,01,15,4.80
2018,01,22,01,16,4.80
2018,01,22,01,17,6.40
2018,01,22,01,18,6.40
2018,01,22,01,19,4.80
2018,01,22,01,20,3.20
2018,01,22,01,21,6.40
2018,01,22,01,22,4.80
2018,01,22,01,23,4.80
2018,01,22,01,24,4.80
2018,01,22,01,25,6.40
2018,01,22,01,26,6.40
2018,01,22,01,27,6.40
2018,01,22,01,28,6.40
2018,01,22,01,29,6.40
2018,01,22,01,30,6.40
2018,01,22,01,31,4.80
2018,01,22,01,32,3.20
2018,01,22,01,33,4.80
2018,01,22,01,34,3.20
2018,01,22,01,35,4.80
2018,01,22,01,36,3.20
2018,01,22,01,56,4.80
2018,01,22,01,57,4.80
2018,01,22,01,58,4.80
2018,01,22,01,59,3.20
2018,01,22,02,01,4.80
2018,01,22,02,02,6.40
2018,01,22,02,03,4.80
2018,01,22,02,04,6.40
2018,01,22,02,05,6.40
2018,01,22,02,06,4.80
2018,01,22,02,07,6.40
2018,01,22,02,08,4.80
2018,01,22,02,09,6.40
2018,01,22,02,10,8.10
2018,01,22,02,11,6.40
2018,01,22,02,12,6.40
2018,01,22,02,13,4.80
2018,01,22,02,14,4.80
2018,01,22,02,15,4.80
2018,01,22,02,16,3.20
2018,01,22,02,17,3.20
2018,01,22,02,18,4.80
2018,01,22,02,19,4.80
2018,01,22,02,20,4.80
2018,01,22,02,21,4.80
2018,01,22,02,22,4.80
2018,01,22,02,23,6.40
2018,01,22,02,24,6.40
2018,01,22,02,25,8.10
2018,01,22,02,26,6.40
2018,01,22,02,27,6.40
2018,01,22,02,28,6.40
2018,01,22,02,29,6.40
2018,01,22,02,30,6.40
2018,01,22,02,31,6.40
2018,01,22,02,32,6.40
2018,01,22,02,33,6.40
2018,01,22,02,34,6.40
2018,01,22,02,35,6.40
2018,01,22,02,36,6.40
2018,01,22,02,37,6.40
2018,01,22,02,38,6.40
2018,01,22,02,39,6.40
2018,01,22,02,40,8.10
2018,01,22,02,41,6.40
2018,01,22,02,42,6.40
2018,01,22,02,43,6.40
2018,01,22,02,44,6.40
2018,01,22,02,45,4.80
2018,01,22,02,46,6.40
2018,01,22,02,47,6.40
2018,01,22,02,48,6.40
2018,01,22,02,49,4.80
2018,01,22,02,50,3.20
2018,01,22,02,51,3.20
2018,01,22,02,52,3.20
2018,01,22,02,53,4.80
2018,01,22,02,54,3.20
2018,01,22,02,55,3.20
2018,01,22,02,56,3.20
2018,01,22,02,57,3.20
2018,01,22,02,58,3.20
2018,01,22,02,59,3.20
2018,01,22,03,00,3.20
2018,01,22,03,03,1.60
2018,01,22,03,07,6.40
2018,01,22,03,08,6.40
2018,01,22,03,09,4.80
2018,01,22,03,10,4.80
2018,01,22,03,11,4.80
2018,01,22,03,12,4.80
2018,01,22,03,13,4.80
2018,01,22,03,14,4.80
2018,01,22,03,15,4.80
2018,01,22,03,16,4.80
2018,01,22,03,17,3.20
2018,01,22,03,18,3.20
2018,01,22,03,19,4.80
2018,01,22,03,20,4.80
2018,01,22,03,21,6.40
2018,01,22,03,22,4.80
2018,01,22,03,23,4.80
2018,01,22,03,24,4.80
2018,01,22,03,25,4.80
2018,01,22,03,26,1.60
2018,01,22,03,27,4.80
2018,01,22,03,28,6.40
2018,01,22,03,29,8.10
2018,01,22,03,30,9.60
2018,01,22,03,31,9.60
2018,01,22,03,32,8.10
2018,01,22,03,33,4.80
2018,01,22,03,34,4.80
2018,01,22,03,35,4.80
2018,01,22,03,36,4.80
2018,01,22,03,37,3.20
2018,01,22,03,38,1.60
2018,01,22,03,40,12.90
2018,01,22,03,41,12.90
2018,01,22,03,42,14.50
2018,01,22,03,43,11.30
2018,01,22,03,44,4.80
2018,01,22,03,45,6.40
2018,01,22,03,46,8.10
2018,01,22,03,47,6.40
2018,01,22,03,48,6.40
2018,01,22,03,49,6.40
2018,01,22,03,50,8.10
2018,01,22,03,51,6.40
2018,01,22,03,52,6.40
2018,01,22,03,53,8.10
2018,01,22,03,54,9.60
2018,01,22,03,55,8.10
2018,01,22,03,56,8.10
2018,01,22,03,57,9.60
2018,01,22,03,58,11.30
2018,01,22,03,59,9.60
2018,01,22,04,00,11.30
2018,01,22,04,01,11.30
2018,01,22,04,02,8.10
2018,01,22,04,03,8.10
2018,01,22,04,04,6.40
2018,01,22,04,05,8.10
2018,01,22,04,06,6.40
2018,01,22,04,07,8.10
2018,01,22,04,08,6.40
2018,01,22,04,09,6.40
2018,01,22,04,10,6.40
2018,01,22,04,11,6.40
2018,01,22,04,12,9.60
2018,01,22,04,13,9.60
2018,01,22,04,14,8.10
2018,01,22,04,15,8.10
2018,01,22,04,16,6.40
2018,01,22,04,17,8.10
2018,01,22,04,18,9.60
2018,01,22,04,19,9.60
2018,01,22,04,20,9.60
2018,01,22,04,21,11.30
2018,01,22,04,22,11.30
2018,01,22,04,23,9.60
2018,01,22,04,24,9.60
2018,01,22,04,25,8.10
2018,01,22,04,26,9.60
2018,01,22,04,27,11.30
2018,01,22,04,28,11.30
2018,01,22,04,29,9.60
2018,01,22,04,30,11.30
2018,01,22,04,31,11.30
2018,01,22,04,32,11.30
2018,01,22,04,33,9.60
2018,01,22,04,34,6.40
2018,01,22,04,35,6.40
2018,01,22,04,36,6.40
2018,01,22,04,37,8.10
2018,01,22,04,38,9.60
2018,01,22,04,39,8.10
2018,01,22,04,40,9.60
2018,01,22,04,41,9.60
2018,01,22,04,42,6.40
2018,01,22,04,43,3.20
2018,01,22,04,46,3.20
2018,01,22,04,47,1.60
2018,01,22,04,49,4.80
2018,01,22,04,50,4.80
2018,01,22,04,51,4.80
2018,01,22,04,52,4.80
2018,01,22,04,53,4.80
2018,01,22,04,54,4.80
2018,01,22,04,55,4.80
2018,01,22,04,56,4.80
2018,01,22,04,57,4.80
2018,01,22,04,58,3.20
2018,01,22,04,59,4.80
2018,01,22,05,00,6.40
2018,01,22,05,01,6.40
2018,01,22,05,02,6.40
2018,01,22,05,03,6.40
2018,01,22,05,04,6.40
2018,01,22,05,05,8.10
2018,01,22,05,06,6.40
2018,01,22,05,07,8.10
2018,01,22,05,08,8.10
2018,01,22,05,09,8.10
2018,01,22,05,10,8.10
2018,01,22,05,11,11.30
2018,01,22,05,12,11.30
2018,01,22,05,13,11.30
2018,01,22,05,14,11.30
2018,01,22,05,15,12.90
2018,01,22,05,16,11.30
2018,01,22,05,17,9.60
2018,01,22,05,18,6.40
2018,01,22,05,19,4.80
2018,01,22,05,20,4.80
2018,01,22,05,21,4.80
2018,01,22,05,22,1.60
2018,01,22,05,23,3.20
2018,01,22,05,24,3.20
2018,01,22,05,25,4.80
2018,01,22,05,26,3.20
2018,01,22,05,27,4.80
2018,01,22,05,28,6.40
2018,01,22,05,29,6.40
2018,01,22,05,30,6.40
2018,01,22,05,31,6.40
2018,01,22,05,32,4.80
2018,01,22,05,33,4.80
2018,01,22,05,34,3.20
2018,01,22,05,35,6.40
2018,01,22,05,36,8.10
2018,01,22,05,37,8.10
2018,01,22,05,38,6.40
2018,01,22,05,39,8.10
2018,01,22,05,40,8.10
2018,01,22,05,41,8.10
2018,01,22,05,42,8.10
2018,01,22,05,43,8.10
2018,01,22,05,44,8.10
2018,01,22,05,45,6.40
2018,01,22,05,46,8.10
2018,01,22,05,47,9.60
2018,01,22,05,48,9.60
2018,01,22,05,49,9.60
2018,01,22,05,50,9.60
2018,01,22,05,51,9.60
2018,01,22,05,52,9.60
2018,01,22,05,53,8.10
2018,01,22,05,54,8.10
2018,01,22,05,55,6.40
2018,01,22,05,56,8.10
2018,01,22,05,57,8.10
2018,01,22,05,58,8.10
2018,01,22,05,59,6.40
2018,01,22,06,00,6.40
2018,01,22,06,01,4.80
2018,01,22,06,02,6.40
2018,01,22,06,03,6.40
2018,01,22,06,04,4.80
2018,01,22,06,05,4.80
2018,01,22,06,06,1.60
2018,01,22,06,11,3.20
2018,01,22,06,12,3.20
2018,01,22,06,13,3.20
2018,01,22,06,14,1.60
2018,01,22,06,20,3.20
2018,01,22,06,21,4.80
2018,01,22,06,22,4.80
2018,01,22,06,23,6.40
2018,01,22,06,24,6.40
2018,01,22,06,25,6.40
2018,01,22,06,26,8.10
2018,01,22,06,27,6.40
2018,01,22,06,28,6.40
2018,01,22,06,29,8.10
2018,01,22,06,30,8.10
2018,01,22,06,31,8.10
2018,01,22,06,32,8.10
2018,01,22,06,33,6.40
2018,01,22,06,34,4.80
2018,01,22,06,35,4.80
2018,01,22,06,36,4.80
2018,01,22,06,37,3.20
2018,01,22,06,38,1.60
2018,01,22,06,39,1.60
2018,01,22,06,40,3.20
2018,01,22,06,41,3.20
2018,01,22,06,42,4.80
2018,01,22,06,43,6.40
2018,01,22,06,44,4.80
2018,01,22,06,45,3.20
2018,01,22,06,46,3.20
2018,01,22,06,47,3.20
2018,01,22,06,48,3.20
2018,01,22,06,49,3.20
2018,01,22,06,50,3.20
2018,01,22,06,51,3.20
2018,01,22,06,52,4.80
2018,01,22,06,53,3.20
2018,01,22,06,54,4.80
2018,01,22,06,55,3.20
2018,01,22,06,56,4.80
2018,01,22,06,57,3.20
2018,01,22,06,58,3.20
2018,01,22,06,59,4.80
2018,01,22,07,00,6.40
2018,01,22,07,01,9.60
2018,01,22,07,02,9.60
2018,01,22,07,03,6.40
2018,01,22,07,04,6.40
2018,01,22,07,05,4.80
2018,01,22,07,06,4.80
2018,01,22,07,07,3.20
2018,01,22,07,08,4.80
2018,01,22,07,09,6.40
2018,01,22,07,10,4.80
2018,01,22,07,11,4.80
2018,01,22,07,12,4.80
2018,01,22,07,13,8.10
2018,01,22,07,14,6.40
2018,01,22,07,15,4.80
2018,01,22,07,16,6.40
2018,01,22,07,17,4.80
2018,01,22,07,18,9.60
2018,01,22,07,19,9.60
2018,01,22,07,20,9.60
2018,01,22,07,21,4.80
2018,01,22,07,22,4.80
2018,01,22,07,23,3.20
2018,01,22,07,24,3.20
2018,01,22,07,25,3.20
2018,01,22,07,26,4.80
2018,01,22,07,27,4.80
2018,01,22,07,28,3.20
2018,01,22,07,29,3.20
2018,01,22,07,30,3.20
2018,01,22,07,32,3.20
2018,01,22,07,33,3.20
2018,01,22,07,34,4.80
2018,01,22,07,35,4.80
2018,01,22,07,36,4.80
2018,01,22,07,37,6.40
2018,01,22,07,38,6.40
2018,01,22,07,39,6.40
2018,01,22,07,40,6.40
2018,01,22,07,41,6.40
2018,01,22,07,42,6.40
2018,01,22,07,43,6.40
2018,01,22,07,44,6.40
2018,01,22,07,45,6.40
2018,01,22,07,46,6.40
2018,01,22,07,47,6.40
2018,01,22,07,48,6.40
2018,01,22,07,49,6.40
2018,01,22,07,50,4.80
2018,01,22,07,51,4.80
2018,01,22,07,52,4.80
2018,01,22,07,53,6.40
2018,01,22,07,54,8.10
2018,01,22,07,55,8.10
2018,01,22,07,56,8.10
2018,01,22,07,57,8.10
2018,01,22,07,58,4.80
2018,01,22,07,59,1.60
2018,01,22,08,00,3.20
2018,01,22,08,01,4.80
2018,01,22,08,02,4.80
2018,01,22,08,03,6.40
2018,01,22,08,04,4.80
2018,01,22,08,05,3.20
2018,01,22,08,10,4.80
2018,01,22,08,11,8.10
2018,01,22,08,12,11.30
2018,01,22,08,13,8.10
2018,01,22,08,14,4.80
2018,01,22,08,15,3.20
2018,01,22,08,16,3.20
2018,01,22,08,17,1.60
2018,01,22,08,18,4.80
2018,01,22,08,19,6.40
2018,01,22,08,20,6.40
2018,01,22,08,21,3.20
2018,01,22,08,30,3.20
2018,01,22,08,31,4.80
2018,01,22,08,32,6.40
2018,01,22,08,33,4.80
2018,01,22,08,34,6.40
2018,01,22,08,35,6.40
2018,01,22,08,36,8.10
2018,01,22,08,37,6.40
2018,01,22,08,38,3.20
2018,01,22,08,39,3.20
2018,01,22,08,41,1.60
2018,01,22,08,42,4.80
2018,01,22,08,43,3.20
2018,01,22,08,44,1.60
2018,01,22,08,45,1.60
2018,01,22,08,46,1.60
2018,01,22,08,47,4.80
2018,01,22,08,48,4.80
2018,01,22,08,49,6.40
2018,01,22,08,50,6.40
2018,01,22,08,51,6.40
2018,01,22,08,52,6.40
2018,01,22,08,53,4.80
2018,01,22,08,54,4.80
2018,01,22,08,55,4.80
2018,01,22,08,56,1.60
2018,01,22,08,59,3.20
2018,01,22,09,00,3.20
2018,01,22,09,01,3.20
2018,01,22,09,02,3.20
2018,01,22,09,03,1.60
2018,01,22,09,04,1.60
2018,01,22,09,06,6.40
2018,01,22,09,07,6.40
2018,01,22,09,08,4.80
2018,01,22,09,09,1.60
2018,01,22,09,18,1.60
2018,01,22,09,19,1.60
2018,01,22,09,21,3.20
2018,01,22,09,24,4.80
2018,01,22,09,25,6.40
2018,01,22,09,26,9.60
2018,01,22,09,27,8.10
2018,01,22,09,28,8.10
2018,01,22,09,29,6.40
2018,01,22,09,35,1.60
2018,01,22,09,38,4.80
2018,01,22,09,39,4.80
2018,01,22,09,40,4.80
2018,01,22,09,41,4.80
2018,01,22,09,44,1.60
2018,01,22,09,45,4.80
2018,01,22,09,46,4.80
2018,01,22,09,47,3.20
2018,01,22,09,48,4.80
2018,01,22,09,49,6.40
2018,01,22,09,50,6.40
2018,01,22,09,51,6.40
2018,01,22,09,52,6.40
2018,01,22,09,53,8.10
2018,01,22,09,54,4.80
2018,01,22,09,55,6.40
2018,01,22,09,56,8.10
2018,01,22,09,57,8.10
2018,01,22,09,58,6.40
2018,01,22,09,59,6.40
2018,01,22,10,00,6.40
2018,01,22,10,01,4.80
2018,01,22,10,02,4.80
2018,01,22,10,03,3.20
2018,01,22,10,04,3.20
2018,01,22,10,05,4.80
2018,01,22,10,06,1.60
2018,01,22,10,07,3.20
2018,01,22,10,08,3.20
2018,01,22,10,09,4.80
2018,01,22,10,10,3.20
2018,01,22,10,11,3.20
2018,01,22,10,12,3.20
2018,01,22,10,13,4.80
2018,01,22,10,14,3.20
2018,01,22,10,15,4.80
2018,01,22,10,16,4.80
2018,01,22,10,17,4.80
2018,01,22,10,18,4.80
2018,01,22,10,19,4.80
2018,01,22,10,20,4.80
2018,01,22,10,21,4.80
2018,01,22,10,22,4.80
2018,01,22,10,23,4.80
2018,01,22,10,24,4.80
2018,01,22,10,28,4.80
2018,01,22,10,29,4.80
2018,01,22,10,30,4.80
2018,01,22,10,31,4.80
2018,01,22,10,32,3.20
2018,01,22,10,33,4.80
2018,01,22,10,34,6.40
2018,01,22,10,35,4.80
2018,01,22,10,36,3.20
2018,01,22,10,37,4.80
2018,01,22,10,38,4.80
2018,01,22,10,39,3.20
2018,01,22,10,40,1.60
2018,01,22,10,47,6.40
2018,01,22,10,48,4.80
2018,01,22,10,49,4.80
2018,01,22,10,50,4.80
2018,01,22,10,51,4.80
2018,01,22,10,52,3.20
2018,01,22,10,53,3.20
2018,01,22,10,54,3.20
2018,01,22,10,55,4.80
2018,01,22,10,56,3.20
2018,01,22,10,57,3.20
2018,01,22,10,58,4.80
2018,01,22,10,59,3.20
2018,01,22,11,00,3.20
2018,01,22,11,01,4.80
2018,01,22,11,02,4.80
2018,01,22,11,03,3.20
2018,01,22,11,04,3.20
2018,01,22,11,05,3.20
2018,01,22,11,06,3.20
2018,01,22,11,07,1.60
2018,01,22,11,08,3.20
2018,01,22,11,09,3.20
2018,01,22,11,10,3.20
2018,01,22,11,11,3.20
2018,01,22,11,12,3.20
2018,01,22,11,13,3.20
2018,01,22,11,14,3.20
2018,01,22,11,15,3.20
2018,01,22,11,16,3.20
2018,01,22,11,18,3.20
2018,01,22,11,19,1.60
2018,01,22,11,20,3.20
2018,01,22,11,21,1.60
2018,01,22,11,46,1.60
2018,01,22,12,13,3.20
2018,01,22,12,14,3.20
2018,01,22,12,15,4.80
2018,01,22,12,16,4.80
2018,01,22,12,17,3.20
2018,01,22,12,18,1.60
2018,01,22,12,22,1.60
2018,01,22,12,27,8.10
2018,01,22,12,28,8.10
2018,01,22,12,29,6.40
2018,01,22,12,30,8.10
2018,01,22,12,31,6.40
2018,01,22,12,32,6.40
2018,01,22,12,33,3.20
2018,01,22,12,34,6.40
2018,01,22,12,35,4.80
2018,01,22,12,36,4.80
2018,01,22,12,37,6.40
2018,01,22,12,38,4.80
2018,01,22,12,39,4.80
2018,01,22,12,40,4.80
2018,01,22,12,41,6.40
2018,01,22,12,42,4.80
2018,01,22,12,43,4.80
2018,01,22,12,44,3.20
2018,01,22,12,45,1.60
2018,01,22,12,46,3.20
2018,01,22,12,47,4.80
2018,01,22,12,48,3.20
2018,01,22,12,49,3.20
2018,01,22,12,50,6.40
2018,01,22,12,51,4.80
2018,01,22,12,52,4.80
2018,01,22,12,56,3.20
2018,01,22,12,57,4.80
2018,01,22,12,58,6.40
2018,01,22,12,59,6.40
2018,01,22,13,00,4.80
2018,01,22,13,01,4.80
2018,01,22,13,02,8.10
2018,01,22,13,03,6.40
2018,01,22,13,04,4.80
2018,01,22,13,05,6.40
2018,01,22,13,06,6.40
2018,01,22,13,07,4.80
2018,01,22,13,08,4.80
2018,01,22,13,09,4.80
2018,01,22,13,10,3.20
2018,01,22,13,11,1.60
2018,01,22,13,12,3.20
2018,01,22,13,13,1.60
2018,01,22,13,17,3.20
2018,01,22,13,18,4.80
2018,01,22,13,19,6.40
2018,01,22,13,20,4.80
2018,01,22,13,21,3.20
2018,01,22,13,22,3.20
2018,01,22,13,23,6.40
2018,01,22,13,24,4.80
2018,01,22,13,25,4.80
2018,01,22,13,26,4.80
2018,01,22,13,27,6.40
2018,01,22,13,28,6.40
2018,01,22,13,29,6.40
2018,01,22,13,30,6.40
2018,01,22,13,31,4.80
2018,01,22,13,32,4.80
2018,01,22,13,33,4.80
2018,01,22,13,34,1.60
2018,01,22,13,35,1.60
2018,01,22,13,36,3.20
2018,01,22,13,37,1.60
2018,01,22,13,38,1.60
2018,01,22,13,39,4.80
2018,01,22,13,40,4.80
2018,01,22,13,42,1.60
2018,01,22,13,43,1.60
2018,01,22,13,44,3.20
2018,01,22,13,45,4.80
2018,01,22,13,46,4.80
2018,01,22,13,47,3.20
2018,01,22,13,48,3.20
2018,01,22,13,49,6.40
2018,01,22,13,50,3.20
2018,01,22,13,51,4.80
2018,01,22,13,52,8.10
2018,01,22,13,53,6.40
2018,01,22,13,54,8.10
2018,01,22,13,55,6.40
2018,01,22,13,56,4.80
2018,01,22,13,57,6.40
2018,01,22,13,58,4.80
2018,01,22,13,59,4.80
2018,01,22,14,00,8.10
2018,01,22,14,01,4.80
2018,01,22,14,02,4.80
2018,01,22,14,03,3.20
2018,01,22,14,04,4.80
2018,01,22,14,05,6.40
2018,01,22,14,06,4.80
2018,01,22,14,07,4.80
2018,01,22,14,08,6.40
2018,01,22,14,09,4.80
2018,01,22,14,10,4.80
2018,01,22,14,11,4.80
2018,01,22,14,12,4.80
2018,01,22,14,13,6.40
2018,01,22,14,14,9.60
2018,01,22,14,15,11.30
2018,01,22,14,16,9.60
2018,01,22,14,17,8.10
2018,01,22,14,18,11.30
2018,01,22,14,19,9.60
2018,01,22,14,20,9.60
2018,01,22,14,21,8.10
2018,01,22,14,22,8.10
2018,01,22,14,23,6.40
2018,01,22,14,24,4.80
2018,01,22,14,25,4.80
2018,01,22,14,26,6.40
2018,01,22,14,27,6.40
2018,01,22,14,28,6.40
2018,01,22,14,29,9.60
2018,01,22,14,30,8.10
2018,01,22,14,31,8.10
2018,01,22,14,32,11.30
2018,01,22,14,33,11.30
2018,01,22,14,34,11.30
2018,01,22,14,35,9.60
2018,01,22,14,36,12.90
2018,01,22,14,37,16.10
2018,01,22,14,38,12.90
2018,01,22,14,39,14.50
2018,01,22,14,40,12.90
2018,01,22,14,41,14.50
2018,01,22,14,42,17.70
2018,01,22,14,43,17.70
2018,01,22,14,44,12.90
2018,01,22,14,45,14.50
2018,01,22,14,46,17.70
2018,01,22,14,47,12.90
2018,01,22,14,48,11.30
2018,01,22,14,49,12.90
2018,01,22,14,50,11.30
2018,01,22,14,51,12.90
2018,01,22,14,52,11.30
2018,01,22,14,53,12.90
2018,01,22,14,54,12.90
2018,01,22,14,55,14.50
2018,01,22,14,56,12.90
2018,01,22,14,57,14.50
2018,01,22,14,58,14.50
2018,01,22,14,59,9.60
2018,01,22,15,00,14.50
2018,01,22,15,01,11.30
2018,01,22,15,02,9.60
2018,01,22,15,03,9.60
2018,01,22,15,04,9.60
2018,01,22,15,05,11.30
2018,01,22,15,06,12.90
2018,01,22,15,07,11.30
2018,01,22,15,08,6.40
2018,01,22,15,09,11.30
2018,01,22,15,10,12.90
2018,01,22,15,11,16.10
2018,01,22,15,12,11.30
2018,01,22,15,13,11.30
2018,01,22,15,14,12.90
2018,01,22,15,15,9.60
2018,01,22,15,16,16.10
2018,01,22,15,17,14.50
2018,01,22,15,18,16.10
2018,01,22,15,19,11.30
2018,01,22,15,20,11.30
2018,01,22,15,21,12.90
2018,01,22,15,22,11.30
2018,01,22,15,23,6.40
2018,01,22,15,24,6.40
2018,01,22,15,25,11.30
2018,01,22,15,26,6.40
2018,01,22,15,27,11.30
2018,01,22,15,28,12.90
2018,01,22,15,29,12.90
2018,01,22,15,30,14.50
2018,01,22,15,31,8.10
2018,01,22,15,32,9.60
2018,01,22,15,33,12.90
2018,01,22,15,34,11.30
2018,01,22,15,35,12.90
2018,01,22,15,36,11.30
2018,01,22,15,37,8.10
2018,01,22,15,38,8.10
2018,01,22,15,39,3.20
2018,01,22,15,40,6.40
2018,01,22,15,41,6.40
2018,01,22,15,42,8.10
2018,01,22,15,43,8.10
2018,01,22,15,44,8.10
2018,01,22,15,45,8.10
2018,01,22,15,46,6.40
2018,01,22,15,47,6.40
2018,01,22,15,48,6.40
2018,01,22,15,49,8.10
2018,01,22,15,50,8.10
2018,01,22,15,51,9.60
2018,01,22,15,52,11.30
2018,01,22,15,53,8.10
2018,01,22,15,54,6.40
2018,01,22,15,55,4.80
2018,01,22,15,56,8.10
2018,01,22,15,57,9.60
2018,01,22,15,58,8.10
2018,01,22,15,59,6.40
2018,01,22,16,00,8.10
2018,01,22,16,01,8.10
2018,01,22,16,02,11.30
2018,01,22,16,03,6.40
2018,01,22,16,04,3.20
2018,01,22,16,05,1.60
2018,01,22,16,08,6.40
2018,01,22,16,09,6.40
2018,01,22,16,10,4.80
2018,01,22,16,11,4.80
2018,01,22,16,12,4.80
2018,01,22,16,13,6.40
2018,01,22,16,14,6.40
2018,01,22,16,15,4.80
2018,01,22,16,16,1.60
2018,01,22,17,24,1.60
2018,01,22,17,36,1.60
2018,01,22,17,37,1.60
2018,01,22,17,47,4.80
2018,01,22,17,48,4.80
2018,01,22,17,49,4.80
2018,01,22,17,50,4.80
2018,01,22,17,51,4.80
2018,01,22,17,52,6.40
2018,01,22,17,53,1.60
2018,01,22,17,56,6.40
2018,01,22,17,57,8.10
2018,01,22,17,58,4.80
2018,01,22,17,59,3.20
2018,01,22,18,00,4.80
2018,01,22,18,01,4.80
2018,01,22,18,02,4.80
2018,01,22,18,03,4.80
2018,01,22,18,04,4.80
2018,01,22,18,05,4.80
2018,01,22,18,06,4.80
2018,01,22,18,07,4.80
2018,01,22,18,08,3.20
2018,01,22,18,09,1.60
2018,01,22,18,12,3.20
2018,01,22,18,13,3.20
2018,01,22,18,14,4.80
2018,01,22,18,15,6.40
2018,01,22,18,16,6.40
2018,01,22,18,17,4.80
2018,01,22,18,18,6.40
2018,01,22,18,19,4.80
2018,01,22,18,20,4.80
2018,01,22,18,21,4.80
2018,01,22,18,22,6.40
2018,01,22,18,23,6.40
2018,01,22,18,24,6.40
2018,01,22,18,25,6.40
2018,01,22,18,26,6.40
2018,01,22,18,27,6.40
2018,01,22,18,28,6.40
2018,01,22,18,29,6.40
2018,01,22,18,30,6.40
2018,01,22,18,31,6.40
2018,01,22,18,32,8.10
2018,01,22,18,33,6.40
2018,01,22,18,34,4.80
2018,01,22,18,35,4.80
2018,01,22,18,36,4.80
2018,01,22,18,37,4.80
2018,01,22,18,38,4.80
2018,01,22,18,39,4.80
2018,01,22,18,40,6.40
2018,01,22,18,41,6.40
2018,01,22,18,42,6.40
2018,01,22,18,43,4.80
2018,01,22,18,44,3.20
2018,01,22,18,45,3.20
2018,01,22,18,50,4.80
2018,01,22,18,51,3.20
2018,01,22,18,52,3.20
2018,01,22,18,53,3.20
2018,01,22,18,57,1.60
2018,01,22,18,58,3.20
2018,01,22,18,59,1.60
2018,01,22,19,05,1.60
2018,01,22,19,22,4.80
2018,01,22,19,23,3.20
2018,01,22,19,24,3.20
2018,01,22,19,25,4.80
2018,01,22,19,26,4.80
2018,01,22,19,27,4.80
2018,01,22,19,28,6.40
2018,01,22,19,29,4.80
2018,01,22,19,30,3.20
2018,01,22,19,31,4.80
2018,01,22,19,32,4.80
2018,01,22,19,33,4.80
2018,01,22,19,34,4.80
2018,01,22,19,35,4.80
2018,01,22,19,36,6.40
2018,01,22,19,37,4.80
2018,01,22,19,38,6.40
2018,01,22,19,39,4.80
2018,01,22,19,40,6.40
2018,01,22,19,41,6.40
2018,01,22,19,42,4.80
2018,01,22,19,43,6.40
2018,01,22,19,44,6.40
2018,01,22,19,45,11.30
2018,01,22,19,46,11.30
2018,01,22,19,47,12.90
2018,01,22,19,48,6.40
2018,01,22,19,49,11.30
2018,01,22,19,50,12.90
2018,01,22,19,51,17.70
2018,01,22,19,52,12.90
2018,01,22,19,53,12.90
2018,01,22,19,54,12.90
2018,01,22,19,55,8.10
2018,01,22,19,56,11.30
2018,01,22,19,57,11.30
2018,01,22,19,58,6.40
2018,01,22,19,59,12.90
2018,01,22,20,00,14.50
2018,01,22,20,01,12.90
2018,01,22,20,02,11.30
2018,01,22,20,03,8.10
2018,01,22,20,04,11.30
2018,01,22,20,05,11.30
2018,01,22,20,06,6.40
2018,01,22,20,07,11.30
2018,01,22,20,08,12.90
2018,01,22,20,09,6.40
2018,01,22,20,10,8.10
2018,01,22,20,11,12.90
2018,01,22,20,12,8.10
2018,01,22,20,13,8.10
2018,01,22,20,14,11.30
2018,01,22,20,15,11.30
2018,01,22,20,16,11.30
2018,01,22,20,17,11.30
2018,01,22,20,18,12.90
2018,01,22,20,19,12.90
2018,01,22,20,20,8.10
2018,01,22,20,21,8.10
2018,01,22,20,22,11.30
2018,01,22,20,23,11.30
2018,01,22,20,24,14.50
2018,01,22,20,25,9.60
2018,01,22,20,26,11.30
2018,01,22,20,27,14.50
2018,01,22,20,28,6.40
2018,01,22,20,29,12.90
2018,01,22,20,30,6.40
2018,01,22,20,31,12.90
2018,01,22,20,32,14.50
2018,01,22,20,33,11.30
2018,01,22,20,34,9.60
2018,01,22,20,35,6.40
2018,01,22,20,36,12.90
2018,01,22,20,37,12.90
2018,01,22,20,38,9.60
2018,01,22,20,39,8.10
2018,01,22,20,40,14.50
2018,01,22,20,41,19.30
2018,01,22,20,42,17.70
2018,01,22,20,43,14.50
2018,01,22,20,44,11.30
2018,01,22,20,45,8.10
2018,01,22,20,46,12.90
2018,01,22,20,47,16.10
2018,01,22,20,48,14.50
2018,01,22,20,49,16.10
2018,01,22,20,50,14.50
2018,01,22,20,51,19.30
2018,01,22,20,52,17.70
2018,01,22,20,53,16.10
2018,01,22,20,54,16.10
2018,01,22,20,55,12.90
2018,01,22,20,56,9.60
2018,01,22,20,57,12.90
2018,01,22,20,58,12.90
2018,01,22,20,59,12.90
2018,01,22,21,00,14.50
2018,01,22,21,01,12.90
2018,01,22,21,02,11.30
2018,01,22,21,03,9.60
2018,01,22,21,04,8.10
2018,01,22,21,05,12.90
2018,01,22,21,06,6.40
2018,01,22,21,07,6.40
2018,01,22,21,08,6.40
2018,01,22,21,09,8.10
2018,01,22,21,10,6.40
2018,01,22,21,11,8.10
2018,01,22,21,12,8.10
2018,01,22,21,13,11.30
2018,01,22,21,14,8.10
2018,01,22,21,15,6.40
2018,01,22,21,16,6.40
2018,01,22,21,17,8.10
2018,01,22,21,18,11.30
2018,01,22,21,19,12.90
2018,01,22,21,20,8.10
2018,01,22,21,21,11.30
2018,01,22,21,22,11.30
2018,01,22,21,23,12.90
2018,01,22,21,24,14.50
2018,01,22,21,25,11.30
2018,01,22,21,26,8.10
2018,01,22,21,27,8.10
2018,01,22,21,28,11.30
2018,01,22,21,29,12.90
2018,01,22,21,30,8.10
2018,01,22,21,31,8.10
2018,01,22,21,32,11.30
2018,01,22,21,33,14.50
2018,01,22,21,34,8.10
2018,01,22,21,35,12.90
2018,01,22,21,36,6.40
2018,01,22,21,37,8.10
2018,01,22,21,38,9.60
2018,01,22,21,39,6.40
2018,01,22,21,40,6.40
2018,01,22,21,41,11.30
2018,01,22,21,42,11.30
2018,01,22,21,43,8.10
2018,01,22,21,44,11.30
2018,01,22,21,45,8.10
2018,01,22,21,46,6.40
2018,01,22,21,47,6.40
2018,01,22,21,48,9.60
2018,01,22,21,49,9.60
2018,01,22,21,50,9.60
2018,01,22,21,51,8.10
2018,01,22,21,52,9.60
2018,01,22,21,53,9.60
2018,01,22,21,54,8.10
2018,01,22,21,55,11.30
2018,01,22,21,56,11.30
2018,01,22,21,57,6.40
2018,01,22,21,58,6.40
2018,01,22,21,59,11.30
2018,01,22,22,00,9.60
2018,01,22,22,01,4.80
2018,01,22,22,02,9.60
2018,01,22,22,03,9.60
2018,01,22,22,04,9.60
2018,01,22,22,05,9.60
2018,01,22,22,06,12.90
2018,01,22,22,07,8.10
2018,01,22,22,08,8.10
2018,01,22,22,09,9.60
2018,01,22,22,10,11.30
2018,01,22,22,11,12.90
2018,01,22,22,12,11.30
2018,01,22,22,13,11.30
2018,01,22,22,14,11.30
2018,01,22,22,15,12.90
2018,01,22,22,16,11.30
2018,01,22,22,17,12.90
2018,01,22,22,18,12.90
2018,01,22,22,19,9.60
2018,01,22,22,20,8.10
2018,01,22,22,21,12.90
2018,01,22,22,22,17.70
2018,01,22,22,23,14.50
2018,01,22,22,24,12.90
2018,01,22,22,25,12.90
2018,01,22,22,26,9.60
2018,01,22,22,27,17.70
2018,01,22,22,28,14.50
2018,01,22,22,29,16.10
2018,01,22,22,30,16.10
2018,01,22,22,31,14.50
2018,01,22,22,32,12.90
2018,01,22,22,33,11.30
2018,01,22,22,34,14.50
2018,01,22,22,35,14.50
2018,01,22,22,36,16.10
2018,01,22,22,37,14.50
2018,01,22,22,38,16.10
2018,01,22,22,39,14.50
2018,01,22,22,40,17.70
2018,01,22,22,41,25.70
2018,01,22,22,42,22.50
2018,01,22,22,43,20.90
2018,01,22,22,44,17.70
2018,01,22,22,45,30.60
2018,01,22,22,46,27.40
2018,01,22,22,47,29.00
2018,01,22,22,48,27.40
2018,01,22,22,49,22.50
2018,01,22,22,50,24.20
2018,01,22,22,51,20.90
2018,01,22,22,52,22.50
2018,01,22,22,53,20.90
2018,01,22,22,54,20.90
2018,01,22,22,55,20.90
2018,01,22,22,56,20.90
2018,01,22,22,57,17.70
2018,01,22,22,58,17.70
2018,01,22,22,59,17.70
2018,01,22,23,00,17.70
2018,01,22,23,01,27.40
2018,01,22,23,02,27.40
2018,01,22,23,03,17.70
2018,01,22,23,04,19.30
2018,01,22,23,05,27.40
2018,01,22,23,06,17.70
2018,01,22,23,07,30.60
2018,01,22,23,08,25.70